Fort Sill, OK

1:25 PM CDT on April 27, 2017 (GMT -0500)
Post Army Air Field

Weather History for KFSI - December, 2013

Change the Weather History Date:

Monday, December 9, 2013

  Actual Average Record
Temperature  
Mean Temperature 20 °F -  
Max Temperature 24 °F 53 °F 74 °F (1970)
Min Temperature 16 °F 30 °F 10 °F (2005)
Degree Days  
Heating Degree Days 44    
Moisture  
Dew Point 16 °F    
Average Humidity 78    
Maximum Humidity 90    
Minimum Humidity 65    
Precipitation  
Precipitation 0.00 in - - ()
Sea Level Pressure  
Sea Level Pressure 30.31 in    
Wind  
Wind Speed 12 mph (NNE)    
Max Wind Speed 20 mph    
Max Gust Speed -    
Visibility 10 miles    
Events      
Averages and records for this station are not official NWS values.
T = Trace of Precipitation, MM = Missing Value Source: NWS Daily Summary

Daily Weather History Graph

Daily Weather History Graph

Search for Another Location

Airport or City:

Trip Planner

Search our weather history database for the weather conditions in past years. The results will help you decide how hot, cold, wet, or windy it might be!

Date:

Astronomy

Dec. 09, 2013 Rise Set
Actual Time 7:29 AM CST 5:22 PM CST
Civil Twilight 7:01 AM CST 5:50 PM CST
Nautical Twilight 6:29 AM CST 6:22 PM CST
Astronomical Twilight 5:59 AM CST 6:52 PM CST
Moon 12:37 PM CST (12/9) 12:01 AM CST (12/9)
Length of Visible Light 10h 49m
Length of Day
9h 53m
Waxing Crescent, 51% of the Moon is Illuminated
Dec 9
Waxing Crescent
Dec 17
Full
Dec 25
Last Quarter
Jan 1
New
Jan 7
First Quarter

Hourly Weather History & Observations

Time (CST) Temp. Windchill Dew Point Humidity Pressure Visibility Wind Dir Wind Speed Gust Speed Precip Events Conditions
12:58 AM 20.3 °F 8.3 °F 17.8 °F 90% 30.20 in 10.0 mi NNE 11.5 mph - N/A   Clear
1:58 AM 20.3 °F 10.6 °F 17.8 °F 90% 30.21 in 10.0 mi North 8.1 mph - N/A   Scattered Clouds
2:58 AM 20.7 °F 11.0 °F 18.1 °F 90% 30.21 in 10.0 mi NNE 8.1 mph - N/A   Clear
3:58 AM 21.9 °F 11.0 °F 18.3 °F 86% 30.20 in 10.0 mi NE 10.4 mph - N/A   Clear
4:58 AM 20.7 °F 8.8 °F 17.2 °F 87% 30.23 in 10.0 mi North 11.5 mph - N/A   Clear
5:58 AM 20.8 °F 7.3 °F 17.6 °F 87% 30.26 in 10.0 mi North 15.0 mph - N/A   Mostly Cloudy
6:58 AM 22.8 °F 11.5 °F 19.2 °F 86% 30.29 in 10.0 mi NNE 11.5 mph - N/A   Overcast
7:18 AM 24.8 °F 11.9 °F 19.4 °F 80% 30.25 in 10.0 mi NNE 16.1 mph - N/A   Overcast
7:28 AM 24.8 °F 12.4 °F 19.4 °F 80% 30.25 in 10.0 mi NE 15.0 mph - N/A   Overcast
7:58 AM 24.4 °F 13.0 °F 19.8 °F 82% 30.31 in 10.0 mi NNE 12.7 mph - N/A   Overcast
8:08 AM 24.8 °F 14.6 °F 19.4 °F 80% 30.27 in 10.0 mi NE 10.4 mph - N/A   Overcast
8:58 AM 23.9 °F 10.3 °F 17.8 °F 77% 30.32 in 10.0 mi NNE 17.3 mph - N/A   Overcast
9:58 AM 23.4 °F 10.6 °F 17.6 °F 79% 30.35 in 10.0 mi NNE 15.0 mph - N/A   Mostly Cloudy
10:03 AM 23.0 °F 10.1 °F 17.6 °F 80% 30.30 in 10.0 mi NNE 15.0 mph - N/A   Mostly Cloudy
10:58 AM 23.4 °F 10.1 °F 17.2 °F 77% 30.34 in 10.0 mi NNE 16.1 mph - N/A   Mostly Cloudy
11:58 AM 23.7 °F 9.3 °F 16.3 °F 73% 30.31 in 10.0 mi NNE 19.6 mph - N/A   Mostly Cloudy
12:58 PM 24.4 °F 11.5 °F 14.2 °F 65% 30.31 in 10.0 mi NNE 16.1 mph - N/A   Overcast
1:58 PM 24.3 °F 10.8 °F 14.9 °F 68% 30.30 in 10.0 mi North 17.3 mph - N/A   Overcast
2:58 PM 23.7 °F 10.1 °F 15.1 °F 70% 30.30 in 10.0 mi NNE 17.3 mph - N/A   Overcast
3:58 PM 23.2 °F 10.3 °F 14.5 °F 70% 30.31 in 10.0 mi North 15.0 mph - N/A   Overcast
4:58 PM 23.2 °F 10.8 °F 14.4 °F 69% 30.32 in 10.0 mi North 13.8 mph - N/A   Overcast
5:58 PM 23.0 °F 8.7 °F 15.1 °F 72% 30.35 in 10.0 mi North 18.4 mph - N/A   Overcast
6:58 PM 22.1 °F 9.5 °F 14.5 °F 73% 30.38 in 10.0 mi North 13.8 mph - N/A   Overcast
7:58 PM 21.7 °F 9.6 °F 14.2 °F 73% 30.41 in 10.0 mi North 12.7 mph - N/A   Overcast
8:58 PM 20.5 °F 11.7 °F 13.3 °F 74% 30.43 in 10.0 mi North 6.9 mph - N/A   Mostly Cloudy
9:58 PM 18.9 °F 10.8 °F 11.7 °F 74% 30.44 in 10.0 mi NW 5.8 mph - N/A   Clear
10:58 PM 17.6 °F 6.4 °F 11.3 °F 76% 30.46 in 10.0 mi NNW 9.2 mph - N/A   Clear
11:58 PM 16.5 °F 9.4 °F 10.6 °F 77% 30.47 in 10.0 mi NNW 4.6 mph - N/A   Clear